FW1323 Weather Reports


time (UTC)temp
C
wind
direction
speed
KPH
gust
KPH
rain 1hr
cm
rain 24hr
cm
rain mn
cm
humidity
%
barometer
mb
20260503190031 14 284 8.0 27.4 0.00 0.00 0.00 46 1015.4
20260503184528 14 219 14.5 25.7 0.00 0.00 0.00 44 1015.8
20260503183025 14 161 11.3 24.1 0.00 0.00 0.00 44 1016.1
20260503181523 13 260 12.9 27.4 0.00 0.00 0.00 45 1016.5
20260503180021 13 198 12.9 27.4 0.00 0.00 0.00 43 1016.6
20260503174526 13 220 19.3 30.6 0.00 0.00 0.00 43 1016.7
20260503173023 14 212 9.7 33.8 0.00 0.00 0.00 46 1016.9
20260503171522 13 263 17.7 27.4 0.00 0.00 0.00 44 1017.0
20260503090115 1 220 1.6 6.4 0.00 0.00 0.00 90 1017.6
20260503081558 0 267 1.6 4.8 0.00 0.00 0.00 91 1017.6
20260503071602 0 312 0.0 0.0 0.00 0.00 0.00 90 1017.3
20260503070110 0 312 0.0 0.0 0.00 0.00 0.00 89 1017.4
20260503060108 1 312 0.0 1.6 0.00 0.00 0.00 87 1017.9
20260503054544 1 312 0.0 3.2 0.00 0.00 0.00 87 1017.9
20260503053041 1 313 0.0 0.0 0.00 0.00 0.00 86 1018.0
20260503051538 1 313 0.0 0.0 0.00 0.00 0.00 85 1018.0
20260503050036 1 313 0.0 0.0 0.00 0.00 0.00 85 1017.9
20260503044540 1 313 0.0 0.0 0.00 0.00 0.00 84 1017.9
20260503043033 2 313 0.0 1.6 0.00 0.00 0.00 82 1017.9
20260503041531 2 313 0.0 0.0 0.00 0.00 0.00 81 1017.8
20260503040029 2 313 0.0 0.0 0.00 0.00 0.00 80 1017.9
20260503034530 2 313 0.0 1.6 0.00 0.00 0.00 79 1017.9
20260503033027 3 348 0.0 3.2 0.00 0.00 0.00 77 1017.9
20260503031527 3 350 0.0 1.6 0.00 0.00 0.00 74 1018.1
20260503030026 4 350 0.0 1.6 0.00 0.00 0.00 72 1018.1
20260503024526 5 350 0.0 1.6 0.00 0.00 0.00 70 1018.1
20260503023024 5 350 0.0 0.0 0.00 0.00 0.00 68 1017.9
20260503021522 6 350 0.0 1.6 0.00 0.00 0.00 65 1017.9
20260503020024 6 350 0.0 1.6 0.00 0.00 0.00 63 1017.6
20260503014621 7 350 0.0 1.6 0.00 0.00 0.00 58 1017.6
20260503013022 7 343 3.2 6.4 0.00 0.00 0.00 56 1017.5
20260503011520 7 347 1.6 8.0 0.00 0.00 0.00 55 1017.3
20260503010018 7 358 4.8 8.0 0.00 0.00 0.00 54 1017.3
20260503004519 8 348 4.8 9.7 0.00 0.00 0.00 53 1017.0
20260503003018 8 340 6.4 12.9 0.00 0.00 0.00 52 1017.0
20260503001520 8 359 6.4 20.9 0.00 0.00 0.00 51 1016.8
20260503000019 9 333 11.3 22.5 0.00 0.00 0.00 50 1016.7
20260502234516 9 342 6.4 16.1 0.00 0.00 0.00 50 1016.6
20260502233019 9 331 11.3 27.4 0.00 0.00 0.00 50 1016.5
20260502231516 9 341 4.8 25.7 0.00 0.00 0.00 50 1016.5
20260502230021 10 12 11.3 24.1 0.00 0.00 0.00 49 1016.5
20260502224513 10 305 17.7 27.4 0.00 0.00 0.00 49 1016.4
20260502223015 10 322 6.4 22.5 0.00 0.00 0.00 48 1016.4
20260502221513 10 316 9.7 25.7 0.00 0.00 0.00 48 1016.3
20260502220012 10 343 9.7 24.1 0.00 0.00 0.00 49 1016.2
20260502214515 10 299 14.5 25.7 0.00 0.00 0.00 49 1016.2
20260502213012 10 25 9.7 22.5 0.00 0.00 0.00 48 1016.2
20260502211523 10 296 9.7 25.7 0.00 0.00 0.00 49 1016.0
20260502210013 10 310 14.5 27.4 0.00 0.00 0.00 49 1016.2
20260502204509 10 272 19.3 29.0 0.00 0.00 0.00 49 1016.1
20260502203008 10 272 9.7 27.4 0.00 0.00 0.00 48 1016.2
20260502201511 10 328 16.1 32.2 0.00 0.00 0.00 46 1016.3
20260502200008 10 337 11.3 20.9 0.00 0.00 0.00 47 1016.4
20260502194505 10 331 11.3 25.7 0.00 0.00 0.00 47 1016.5
20260502193005 10 345 14.5 32.2 0.00 0.00 0.00 46 1016.5
20260502191504 10 46 11.3 25.7 0.00 0.00 0.00 47 1016.6